Time,TemperatureF,DewpointF,PressureIn,WindDirection,WindDirectionDegrees,WindSpeedMPH,WindSpeedGustMPH,Humidity,HourlyPrecipIn,Conditions,Clouds,dailyrainin,SoftwareType,DateUTC
2013-03-08 00:00:00,29.9,29.1,30.13,NNE,21,3.0,6.0,97,0.00,,,0.00,WUHU216DAVISVP2,2013-03-08 05:00:00,
2013-03-08 00:02:00,29.9,29.1,30.13,NW,314,4.0,6.0,97,0.00,,,0.00,WUHU216DAVISVP2,2013-03-08 05:02:00,
2013-03-08 00:07:00,29.9,29.1,30.13,North,359,2.2,7.0,97,0.00,,,0.00,WUHU216DAVISVP2,2013-03-08 05:07:00,
2013-03-08 00:12:00,29.8,29.0,30.13,North,1,3.4,7.0,97,0.00,,,0.00,WUHU216DAVISVP2,2013-03-08 05:12:00,
2013-03-08 00:17:00,29.8,29.1,30.12,North,359,5.1,8.0,97,0.00,,,0.00,WUHU216DAVISVP2,2013-03-08 05:17:00,
2013-03-08 00:22:00,29.7,28.9,30.13,North,357,5.0,9.0,97,0.00,,,0.00,WUHU216DAVISVP2,2013-03-08 05:22:00,
2013-03-08 00:27:00,29.7,28.9,30.12,North,358,3.5,9.0,97,0.00,,,0.00,WUHU216DAVISVP2,2013-03-08 05:27:00,
2013-03-08 00:32:00,29.7,28.9,30.13,North,351,4.8,9.0,97,0.00,,,0.00,WUHU216DAVISVP2,2013-03-08 05:32:00,
2013-03-08 00:37:00,29.8,29.0,30.13,North,2,4.4,9.0,97,0.00,,,0.00,WUHU216DAVISVP2,2013-03-08 05:37:00,
2013-03-08 00:42:00,29.8,29.1,30.13,NNE,18,5.0,9.0,97,0.00,,,0.00,WUHU216DAVISVP2,2013-03-08 05:42:00,
2013-03-08 00:47:00,29.8,29.1,30.13,North,357,5.0,8.0,97,0.00,,,0.00,WUHU216DAVISVP2,2013-03-08 05:47:00,
2013-03-08 00:52:00,29.8,29.0,30.13,NNE,20,4.0,8.0,97,0.00,,,0.00,WUHU216DAVISVP2,2013-03-08 05:52:00,
2013-03-08 00:57:00,29.8,29.0,30.13,NNE,19,3.0,8.0,97,0.00,,,0.00,WUHU216DAVISVP2,2013-03-08 05:57:00,
2013-03-08 01:02:00,29.8,29.0,30.13,North,352,3.6,8.0,97,0.00,,,0.00,WUHU216DAVISVP2,2013-03-08 06:02:00,
2013-03-08 01:07:00,29.8,29.0,30.13,NNE,22,6.0,9.0,97,0.00,,,0.00,WUHU216DAVISVP2,2013-03-08 06:07:00,
2013-03-08 01:12:00,29.8,29.1,30.13,North,4,5.0,9.0,97,0.00,,,0.00,WUHU216DAVISVP2,2013-03-08 06:12:00,
2013-03-08 01:17:00,29.8,29.0,30.13,North,5,5.4,8.0,97,0.00,,,0.00,WUHU216DAVISVP2,2013-03-08 06:17:00,
2013-03-08 01:22:00,29.8,29.0,30.13,North,1,3.3,8.0,97,0.00,,,0.00,WUHU216DAVISVP2,2013-03-08 06:22:00,
2013-03-08 01:27:00,29.7,28.9,30.13,NNW,342,3.4,8.0,97,0.00,,,0.00,WUHU216DAVISVP2,2013-03-08 06:27:00,
2013-03-08 01:32:00,29.7,28.9,30.13,NNE,22,3.0,8.0,97,0.00,,,0.00,WUHU216DAVISVP2,2013-03-08 06:32:00,
2013-03-08 01:37:00,29.7,28.9,30.13,NNE,18,3.0,7.0,97,0.00,,,0.00,WUHU216DAVISVP2,2013-03-08 06:37:00,
2013-03-08 01:42:00,29.7,29.0,30.13,NW,315,5.0,7.0,97,0.00,,,0.00,WUHU216DAVISVP2,2013-03-08 06:42:00,
2013-03-08 01:47:00,29.7,28.9,30.13,NW,305,3.5,8.0,97,0.00,,,0.00,WUHU216DAVISVP2,2013-03-08 06:47:00,
2013-03-08 01:52:00,29.7,28.9,30.13,NW,319,6.0,8.0,97,0.00,,,0.00,WUHU216DAVISVP2,2013-03-08 06:52:00,
2013-03-08 01:57:00,29.6,28.8,30.13,NW,320,3.8,9.0,97,0.00,,,0.00,WUHU216DAVISVP2,2013-03-08 06:57:00,
2013-03-08 02:02:00,29.6,28.8,30.13,NNE,13,5.0,9.0,97,0.00,,,0.00,WUHU216DAVISVP2,2013-03-08 07:02:00,
2013-03-08 02:07:00,29.6,28.8,30.13,NNW,330,4.0,9.0,97,0.00,,,0.00,WUHU216DAVISVP2,2013-03-08 07:07:00,
2013-03-08 02:12:00,29.6,28.9,30.13,North,355,5.6,9.0,97,0.00,,,0.00,WUHU216DAVISVP2,2013-03-08 07:12:00,
2013-03-08 02:17:00,29.5,28.7,30.12,NNW,327,4.4,9.0,97,0.00,,,0.00,WUHU216DAVISVP2,2013-03-08 07:17:00,
2013-03-08 02:22:00,29.5,28.7,30.12,NNE,29,5.0,11.0,97,0.00,,,0.00,WUHU216DAVISVP2,2013-03-08 07:22:00,
2013-03-08 02:27:00,29.4,28.6,30.12,NNE,18,5.0,11.0,97,0.00,,,0.00,WUHU216DAVISVP2,2013-03-08 07:27:00,
2013-03-08 02:32:00,29.4,28.6,30.12,NW,315,4.2,10.0,97,0.00,,,0.00,WUHU216DAVISVP2,2013-03-08 07:32:00,
2013-03-08 02:37:00,29.4,28.6,30.12,North,352,5.0,10.0,97,0.00,,,0.00,WUHU216DAVISVP2,2013-03-08 07:37:00,
2013-03-08 02:42:00,29.4,28.7,30.12,North,354,4.5,14.0,97,0.00,,,0.00,WUHU216DAVISVP2,2013-03-08 07:42:00,
2013-03-08 02:47:00,29.4,28.6,30.12,NNE,20,9.0,14.0,97,0.00,,,0.00,WUHU216DAVISVP2,2013-03-08 07:47:00,
2013-03-08 02:52:00,29.3,28.5,30.12,NNW,343,3.1,13.0,97,0.00,,,0.00,WUHU216DAVISVP2,2013-03-08 07:52:00,
2013-03-08 02:57:00,29.3,28.5,30.11,North,359,2.9,13.0,97,0.00,,,0.00,WUHU216DAVISVP2,2013-03-08 07:57:00,
2013-03-08 03:02:00,29.3,28.5,30.11,NW,312,5.0,10.0,97,0.00,,,0.00,WUHU216DAVISVP2,2013-03-08 08:02:00,
2013-03-08 03:07:00,29.3,28.5,30.11,NNW,340,3.6,10.0,97,0.00,,,0.00,WUHU216DAVISVP2,2013-03-08 08:07:00,
2013-03-08 03:12:00,29.3,28.5,30.11,NNW,334,4.2,12.0,97,0.00,,,0.00,WUHU216DAVISVP2,2013-03-08 08:12:00,
2013-03-08 03:17:00,29.3,28.6,30.11,NNW,342,3.2,12.0,97,0.00,,,0.00,WUHU216DAVISVP2,2013-03-08 08:17:00,
2013-03-08 03:22:00,29.3,28.5,30.11,NNW,340,5.0,11.0,97,0.00,,,0.00,WUHU216DAVISVP2,2013-03-08 08:22:00,
2013-03-08 03:27:00,29.3,28.5,30.11,NNW,338,6.0,11.0,97,0.00,,,0.00,WUHU216DAVISVP2,2013-03-08 08:27:00,
2013-03-08 03:32:00,29.3,28.5,30.11,NNE,15,3.0,10.0,97,0.00,,,0.00,WUHU216DAVISVP2,2013-03-08 08:32:00,
2013-03-08 03:37:00,29.2,28.4,30.11,NNW,335,2.8,10.0,97,0.00,,,0.00,WUHU216DAVISVP2,2013-03-08 08:37:00,
2013-03-08 03:42:00,29.2,28.4,30.11,North,351,4.8,12.0,97,0.00,,,0.00,WUHU216DAVISVP2,2013-03-08 08:42:00,
2013-03-08 03:47:00,29.3,28.5,30.11,NW,307,4.0,12.0,97,0.00,,,0.00,WUHU216DAVISVP2,2013-03-08 08:47:00,
2013-03-08 03:52:00,29.2,28.5,30.11,NNE,18,4.0,11.0,97,0.00,,,0.00,WUHU216DAVISVP2,2013-03-08 08:52:00,
2013-03-08 03:57:00,29.2,28.4,30.11,NNW,340,3.8,11.0,97,0.00,,,0.00,WUHU216DAVISVP2,2013-03-08 08:57:00,
2013-03-08 04:02:00,29.2,28.4,30.11,NNE,26,3.0,9.0,97,0.00,,,0.00,WUHU216DAVISVP2,2013-03-08 09:02:00,
2013-03-08 04:07:00,29.2,28.4,30.11,NNW,340,6.0,9.0,97,0.00,,,0.00,WUHU216DAVISVP2,2013-03-08 09:07:00,
2013-03-08 04:12:00,29.2,28.4,30.11,NNE,16,6.0,9.0,97,0.00,,,0.00,WUHU216DAVISVP2,2013-03-08 09:12:00,
2013-03-08 04:17:00,29.2,28.4,30.11,North,359,4.1,14.0,97,0.00,,,0.00,WUHU216DAVISVP2,2013-03-08 09:17:00,
2013-03-08 04:22:00,29.2,28.4,30.11,North,358,5.6,14.0,97,0.00,,,0.00,WUHU216DAVISVP2,2013-03-08 09:22:00,
2013-03-08 04:27:00,29.2,28.4,30.11,NNW,348,10.0,12.0,97,0.00,,,0.00,WUHU216DAVISVP2,2013-03-08 09:27:00,
2013-03-08 04:32:00,29.2,28.4,30.11,NW,306,5.0,11.0,97,0.00,,,0.00,WUHU216DAVISVP2,2013-03-08 09:32:00,
2013-03-08 04:37:00,29.2,28.4,30.12,NNE,14,8.0,13.0,97,0.00,,,0.00,WUHU216DAVISVP2,2013-03-08 09:37:00,
2013-03-08 04:42:00,29.1,28.3,30.12,NE,41,6.0,13.0,97,0.00,,,0.00,WUHU216DAVISVP2,2013-03-08 09:42:00,
2013-03-08 04:47:00,29.1,28.3,30.12,North,351,5.7,14.0,97,0.00,,,0.00,WUHU216DAVISVP2,2013-03-08 09:47:00,
2013-03-08 04:52:00,29.1,28.3,30.12,NNW,343,10.0,14.0,97,0.00,,,0.00,WUHU216DAVISVP2,2013-03-08 09:52:00,
2013-03-08 04:57:00,29.1,28.3,30.12,North,349,4.8,12.0,97,0.00,,,0.00,WUHU216DAVISVP2,2013-03-08 09:57:00,
2013-03-08 05:02:00,29.1,28.3,30.12,North,0,5.0,12.0,97,0.00,,,0.00,WUHU216DAVISVP2,2013-03-08 10:02:00,
2013-03-08 05:07:00,29.1,28.3,30.12,North,8,6.3,12.0,97,0.00,,,0.00,WUHU216DAVISVP2,2013-03-08 10:07:00,
2013-03-08 05:12:00,29.1,28.4,30.12,North,358,5.6,12.0,97,0.00,,,0.00,WUHU216DAVISVP2,2013-03-08 10:12:00,
2013-03-08 05:17:00,29.1,28.3,30.12,NNE,22,9.0,13.0,97,0.00,,,0.00,WUHU216DAVISVP2,2013-03-08 10:17:00,
2013-03-08 05:22:00,29.1,28.3,30.12,North,349,7.2,15.0,97,0.00,,,0.00,WUHU216DAVISVP2,2013-03-08 10:22:00,
2013-03-08 05:27:00,29.0,28.2,30.12,North,353,7.9,16.0,97,0.00,,,0.00,WUHU216DAVISVP2,2013-03-08 10:27:00,
2013-03-08 05:32:00,29.1,28.3,30.12,NNW,344,7.0,16.0,97,0.00,,,0.00,WUHU216DAVISVP2,2013-03-08 10:32:00,
2013-03-08 05:37:00,29.0,28.2,30.11,NNE,27,7.0,14.0,97,0.00,,,0.00,WUHU216DAVISVP2,2013-03-08 10:37:00,
2013-03-08 05:42:00,29.1,28.3,30.11,NNW,338,5.0,13.0,97,0.00,,,0.00,WUHU216DAVISVP2,2013-03-08 10:42:00,
2013-03-08 05:47:00,29.1,28.4,30.11,NNW,343,4.7,13.0,97,0.00,,,0.00,WUHU216DAVISVP2,2013-03-08 10:47:00,
2013-03-08 05:52:00,29.2,28.4,30.11,NNE,18,6.0,13.0,97,0.00,,,0.00,WUHU216DAVISVP2,2013-03-08 10:52:00,
2013-03-08 05:57:00,29.2,28.4,30.11,NNW,341,6.5,11.0,97,0.00,,,0.00,WUHU216DAVISVP2,2013-03-08 10:57:00,
2013-03-08 06:02:00,29.1,28.3,30.11,North,357,6.7,13.0,97,0.00,,,0.00,WUHU216DAVISVP2,2013-03-08 11:02:00,
2013-03-08 06:07:00,29.1,28.3,30.11,North,1,7.6,14.0,97,0.00,,,0.00,WUHU216DAVISVP2,2013-03-08 11:07:00,
2013-03-08 06:12:00,29.1,28.3,30.12,NW,309,9.0,14.0,97,0.00,,,0.00,WUHU216DAVISVP2,2013-03-08 11:12:00,
2013-03-08 06:17:00,29.1,28.3,30.12,NNE,26,6.0,14.0,97,0.00,,,0.00,WUHU216DAVISVP2,2013-03-08 11:17:00,
2013-03-08 06:22:00,29.2,28.4,30.12,NNE,18,6.0,14.0,97,0.00,,,0.00,WUHU216DAVISVP2,2013-03-08 11:22:00,
2013-03-08 06:27:00,29.2,28.4,30.12,North,352,5.0,13.0,97,0.00,,,0.00,WUHU216DAVISVP2,2013-03-08 11:27:00,
2013-03-08 06:32:00,29.2,28.4,30.12,NNW,345,8.0,11.0,97,0.00,,,0.00,WUHU216DAVISVP2,2013-03-08 11:32:00,
2013-03-08 06:37:00,29.2,28.4,30.12,North,1,5.4,13.0,97,0.00,,,0.00,WUHU216DAVISVP2,2013-03-08 11:37:00,
2013-03-08 06:42:00,29.3,28.5,30.12,NNW,343,5.8,13.0,97,0.00,,,0.00,WUHU216DAVISVP2,2013-03-08 11:42:00,
2013-03-08 06:47:00,29.2,28.4,30.11,NNW,339,6.7,12.0,97,0.00,,,0.00,WUHU216DAVISVP2,2013-03-08 11:47:00,
2013-03-08 06:52:00,29.3,28.6,30.12,NNE,23,7.0,12.0,97,0.00,,,0.00,WUHU216DAVISVP2,2013-03-08 11:52:00,
2013-03-08 06:57:00,29.3,28.5,30.12,North,11,5.0,12.0,97,0.00,,,0.00,WUHU216DAVISVP2,2013-03-08 11:57:00,
2013-03-08 07:02:00,29.3,28.5,30.12,NNW,345,5.9,12.0,97,0.00,,,0.00,WUHU216DAVISVP2,2013-03-08 12:02:00,
2013-03-08 07:07:00,29.3,28.5,30.12,NNW,347,6.6,12.0,97,0.00,,,0.00,WUHU216DAVISVP2,2013-03-08 12:07:00,
2013-03-08 07:12:00,29.4,28.6,30.12,NNW,347,4.6,13.0,97,0.00,,,0.00,WUHU216DAVISVP2,2013-03-08 12:12:00,
2013-03-08 07:17:00,29.4,28.6,30.12,NNW,328,6.0,13.0,97,0.00,,,0.00,WUHU216DAVISVP2,2013-03-08 12:17:00,
2013-03-08 07:22:00,29.4,28.6,30.12,NNW,343,7.0,13.0,97,0.00,,,0.00,WUHU216DAVISVP2,2013-03-08 12:22:00,
2013-03-08 07:27:00,29.4,28.7,30.12,North,350,5.5,13.0,97,0.00,,,0.00,WUHU216DAVISVP2,2013-03-08 12:27:00,
2013-03-08 07:32:00,29.5,28.7,30.12,NNW,337,4.9,14.0,97,0.00,,,0.00,WUHU216DAVISVP2,2013-03-08 12:32:00,
2013-03-08 07:37:00,29.5,28.7,30.13,North,350,4.8,14.0,97,0.00,,,0.00,WUHU216DAVISVP2,2013-03-08 12:37:00,
2013-03-08 07:42:00,29.5,28.7,30.13,North,8,8.2,13.0,97,0.00,,,0.00,WUHU216DAVISVP2,2013-03-08 12:42:00,
2013-03-08 07:47:00,29.6,28.9,30.13,North,9,8.0,13.0,97,0.00,,,0.00,WUHU216DAVISVP2,2013-03-08 12:47:00,
2013-03-08 07:52:00,29.6,28.8,30.13,North,2,6.4,14.0,97,0.00,,,0.00,WUHU216DAVISVP2,2013-03-08 12:52:00,
2013-03-08 07:57:00,29.7,28.9,30.13,North,1,7.0,14.0,97,0.00,,,0.00,WUHU216DAVISVP2,2013-03-08 12:57:00,
2013-03-08 08:02:00,29.7,28.9,30.13,North,0,4.3,13.0,97,0.00,,,0.00,WUHU216DAVISVP2,2013-03-08 13:02:00,
2013-03-08 08:07:00,29.7,28.9,30.13,North,3,5.7,13.0,97,0.00,,,0.00,WUHU216DAVISVP2,2013-03-08 13:07:00,
2013-03-08 08:12:00,29.7,29.0,30.13,North,4,8.0,12.0,97,0.00,,,0.00,WUHU216DAVISVP2,2013-03-08 13:12:00,
2013-03-08 08:17:00,29.8,29.0,30.14,NNE,12,5.0,12.0,97,0.00,,,0.00,WUHU216DAVISVP2,2013-03-08 13:17:00,
2013-03-08 08:22:00,29.8,29.0,30.14,NNE,22,7.0,11.0,97,0.00,,,0.00,WUHU216DAVISVP2,2013-03-08 13:22:00,
2013-03-08 08:27:00,29.8,29.0,30.13,North,2,6.2,12.0,97,0.00,,,0.00,WUHU216DAVISVP2,2013-03-08 13:27:00,
2013-03-08 08:32:00,29.9,29.1,30.14,NNW,334,6.0,12.0,97,0.00,,,0.00,WUHU216DAVISVP2,2013-03-08 13:32:00,
2013-03-08 08:37:00,29.9,29.2,30.14,NE,34,7.0,11.0,97,0.00,,,0.00,WUHU216DAVISVP2,2013-03-08 13:37:00,
2013-03-08 08:42:00,29.9,29.1,30.14,North,359,4.5,13.0,97,0.00,,,0.00,WUHU216DAVISVP2,2013-03-08 13:42:00,
2013-03-08 08:47:00,29.9,29.1,30.14,North,349,11.0,13.0,97,0.00,,,0.00,WUHU216DAVISVP2,2013-03-08 13:47:00,
2013-03-08 08:52:00,29.9,29.1,30.14,North,351,6.3,13.0,97,0.00,,,0.00,WUHU216DAVISVP2,2013-03-08 13:52:00,
2013-03-08 08:57:00,30.0,29.2,30.14,North,5,5.9,13.0,97,0.00,,,0.00,WUHU216DAVISVP2,2013-03-08 13:57:00,
2013-03-08 09:02:00,30.0,29.3,30.14,NNE,15,5.8,13.0,97,0.00,,,0.00,WUHU216DAVISVP2,2013-03-08 14:02:00,
2013-03-08 09:07:00,30.1,29.4,30.14,North,5,7.1,15.0,97,0.00,,,0.00,WUHU216DAVISVP2,2013-03-08 14:07:00,
2013-03-08 09:12:00,30.1,29.3,30.15,North,359,5.7,15.0,97,0.00,,,0.00,WUHU216DAVISVP2,2013-03-08 14:12:00,
2013-03-08 09:17:00,30.1,29.3,30.14,NNE,24,16.0,17.0,97,0.00,,,0.00,WUHU216DAVISVP2,2013-03-08 14:17:00,
2013-03-08 09:22:00,30.2,29.4,30.14,NNW,328,12.0,17.0,97,0.00,,,0.00,WUHU216DAVISVP2,2013-03-08 14:22:00,
2013-03-08 09:27:00,30.2,29.4,30.14,NW,323,8.0,16.0,97,0.00,,,0.00,WUHU216DAVISVP2,2013-03-08 14:27:00,
2013-03-08 09:32:00,30.2,29.5,30.14,NNW,337,6.6,15.0,97,0.00,,,0.00,WUHU216DAVISVP2,2013-03-08 14:32:00,
2013-03-08 09:37:00,30.2,29.5,30.15,North,2,7.9,15.0,97,0.00,,,0.00,WUHU216DAVISVP2,2013-03-08 14:37:00,
2013-03-08 09:42:00,30.3,29.5,30.15,North,359,7.6,15.0,97,0.00,,,0.00,WUHU216DAVISVP2,2013-03-08 14:42:00,
2013-03-08 09:47:00,30.2,29.4,30.15,NE,46,6.0,14.0,97,0.00,,,0.00,WUHU216DAVISVP2,2013-03-08 14:47:00,
2013-03-08 09:52:00,30.3,29.5,30.15,North,359,7.8,14.0,97,0.00,,,0.00,WUHU216DAVISVP2,2013-03-08 14:52:00,
2013-03-08 09:57:00,30.2,29.4,30.15,North,4,7.4,14.0,97,0.00,,,0.00,WUHU216DAVISVP2,2013-03-08 14:57:00,
2013-03-08 10:02:00,30.2,29.5,30.15,North,351,8.0,13.0,97,0.00,,,0.00,WUHU216DAVISVP2,2013-03-08 15:02:00,
2013-03-08 10:07:00,30.2,29.4,30.15,NNE,18,11.0,13.0,97,0.00,,,0.00,WUHU216DAVISVP2,2013-03-08 15:07:00,
2013-03-08 10:12:00,30.3,29.5,30.15,North,4,8.0,12.0,97,0.00,,,0.00,WUHU216DAVISVP2,2013-03-08 15:12:00,
2013-03-08 10:17:00,30.4,29.6,30.15,NNW,348,6.5,14.0,97,0.00,,,0.00,WUHU216DAVISVP2,2013-03-08 15:17:00,
2013-03-08 10:22:00,30.4,29.6,30.16,North,9,4.7,14.0,97,0.00,,,0.00,WUHU216DAVISVP2,2013-03-08 15:22:00,
2013-03-08 10:27:00,30.5,29.7,30.16,North,351,6.7,13.0,97,0.00,,,0.00,WUHU216DAVISVP2,2013-03-08 15:27:00,
2013-03-08 10:32:00,30.5,29.7,30.16,North,9,7.0,13.0,97,0.00,,,0.00,WUHU216DAVISVP2,2013-03-08 15:32:00,
2013-03-08 10:37:00,30.5,29.7,30.16,NNE,12,9.5,18.0,97,0.00,,,0.00,WUHU216DAVISVP2,2013-03-08 15:37:00,
2013-03-08 10:42:00,30.5,29.7,30.16,North,8,8.0,18.0,97,0.00,,,0.00,WUHU216DAVISVP2,2013-03-08 15:42:00,
2013-03-08 10:47:00,30.6,29.8,30.16,NNE,24,10.0,17.0,97,0.00,,,0.00,WUHU216DAVISVP2,2013-03-08 15:47:00,
2013-03-08 10:52:00,30.8,30.0,30.16,NE,39,8.0,17.0,97,0.00,,,0.00,WUHU216DAVISVP2,2013-03-08 15:52:00,
2013-03-08 10:57:00,30.8,30.0,30.16,NW,311,6.0,14.0,97,0.00,,,0.00,WUHU216DAVISVP2,2013-03-08 15:57:00,
2013-03-08 11:02:00,30.8,30.0,30.17,NW,325,8.0,12.0,97,0.00,,,0.00,WUHU216DAVISVP2,2013-03-08 16:02:00,
2013-03-08 11:07:00,30.9,30.1,30.16,North,4,5.6,12.0,97,0.00,,,0.00,WUHU216DAVISVP2,2013-03-08 16:07:00,
2013-03-08 11:12:00,30.9,30.1,30.16,North,356,5.2,12.0,97,0.00,,,0.00,WUHU216DAVISVP2,2013-03-08 16:12:00,
2013-03-08 11:17:00,31.0,30.2,30.16,North,351,5.0,12.0,97,0.00,,,0.00,WUHU216DAVISVP2,2013-03-08 16:17:00,
2013-03-08 11:22:00,31.1,30.3,30.17,NNE,18,9.0,11.0,97,0.00,,,0.00,WUHU216DAVISVP2,2013-03-08 16:22:00,
2013-03-08 11:27:00,31.1,30.3,30.17,NW,319,6.0,13.0,97,0.00,,,0.00,WUHU216DAVISVP2,2013-03-08 16:27:00,
2013-03-08 11:32:00,31.1,30.3,30.16,North,0,5.6,13.0,97,0.00,,,0.00,WUHU216DAVISVP2,2013-03-08 16:32:00,
2013-03-08 11:37:00,31.2,30.4,30.16,North,3,5.7,12.0,97,0.00,,,0.00,WUHU216DAVISVP2,2013-03-08 16:37:00,
2013-03-08 11:42:00,31.3,30.5,30.16,NNE,15,3.8,12.0,97,0.00,,,0.00,WUHU216DAVISVP2,2013-03-08 16:42:00,
2013-03-08 11:47:00,31.3,30.5,30.17,NNE,13,5.0,10.0,97,0.00,,,0.00,WUHU216DAVISVP2,2013-03-08 16:47:00,
2013-03-08 11:52:00,31.4,30.6,30.18,NNE,24,4.3,10.0,97,0.00,,,0.00,WUHU216DAVISVP2,2013-03-08 16:52:00,
2013-03-08 11:57:00,31.4,30.6,30.17,NNE,19,4.0,10.0,97,0.00,,,0.00,WUHU216DAVISVP2,2013-03-08 16:57:00,
2013-03-08 12:02:00,31.4,30.6,30.17,NNE,25,5.0,9.0,97,0.00,,,0.00,WUHU216DAVISVP2,2013-03-08 17:02:00,
2013-03-08 12:07:00,31.4,30.6,30.16,NNE,16,5.9,11.0,97,0.00,,,0.00,WUHU216DAVISVP2,2013-03-08 17:07:00,
2013-03-08 12:12:00,31.4,30.6,30.16,NNE,18,9.0,12.0,97,0.00,,,0.00,WUHU216DAVISVP2,2013-03-08 17:12:00,
2013-03-08 12:17:00,31.4,30.6,30.16,North,358,4.3,12.0,97,0.00,,,0.00,WUHU216DAVISVP2,2013-03-08 17:17:00,
2013-03-08 12:22:00,31.5,30.7,30.15,NNW,334,4.0,12.0,97,0.00,,,0.00,WUHU216DAVISVP2,2013-03-08 17:22:00,
2013-03-08 12:27:00,31.6,30.8,30.14,NNW,339,5.0,10.0,97,0.00,,,0.00,WUHU216DAVISVP2,2013-03-08 17:27:00,
2013-03-08 12:32:00,31.7,30.9,30.14,NNW,341,4.2,9.0,97,0.00,,,0.00,WUHU216DAVISVP2,2013-03-08 17:32:00,
2013-03-08 12:37:00,31.8,31.0,30.14,NNE,18,6.0,10.0,97,0.00,,,0.00,WUHU216DAVISVP2,2013-03-08 17:37:00,
2013-03-08 12:42:00,32.0,31.5,30.15,NNE,30,6.0,10.0,98,0.00,,,0.00,WUHU216DAVISVP2,2013-03-08 17:42:00,
2013-03-08 12:47:00,32.0,31.2,30.15,NE,34,7.0,11.0,97,0.00,,,0.00,WUHU216DAVISVP2,2013-03-08 17:47:00,
2013-03-08 12:52:00,32.1,31.3,30.14,North,4,5.2,11.0,97,0.00,,,0.00,WUHU216DAVISVP2,2013-03-08 17:52:00,
2013-03-08 12:57:00,32.2,31.4,30.14,NE,41,7.0,10.0,97,0.00,,,0.00,WUHU216DAVISVP2,2013-03-08 17:57:00,
2013-03-08 13:02:00,32.3,31.5,30.15,NE,46,5.0,11.0,97,0.00,,,0.00,WUHU216DAVISVP2,2013-03-08 18:02:00,
2013-03-08 13:07:00,32.4,31.6,30.15,NE,36,9.0,11.0,97,0.00,,,0.00,WUHU216DAVISVP2,2013-03-08 18:07:00,
2013-03-08 13:12:00,32.6,31.8,30.14,NE,47,8.0,13.0,97,0.00,,,0.00,WUHU216DAVISVP2,2013-03-08 18:12:00,
2013-03-08 13:17:00,32.8,32.0,30.15,NE,46,6.4,13.0,97,0.00,,,0.00,WUHU216DAVISVP2,2013-03-08 18:17:00,
2013-03-08 13:22:00,32.9,32.1,30.15,North,7,10.0,12.0,97,0.00,,,0.00,WUHU216DAVISVP2,2013-03-08 18:22:00,
2013-03-08 13:27:00,33.0,32.2,30.15,NNE,28,8.6,13.0,97,0.00,,,0.00,WUHU216DAVISVP2,2013-03-08 18:27:00,
2013-03-08 13:32:00,33.1,32.3,30.16,NNE,26,5.9,14.0,97,0.00,,,0.00,WUHU216DAVISVP2,2013-03-08 18:32:00,
2013-03-08 13:37:00,33.2,32.4,30.15,NNE,16,6.9,14.0,97,0.00,,,0.00,WUHU216DAVISVP2,2013-03-08 18:37:00,
2013-03-08 13:42:00,33.2,32.4,30.16,NE,43,5.8,13.0,97,0.00,,,0.00,WUHU216DAVISVP2,2013-03-08 18:42:00,
2013-03-08 13:47:00,33.2,32.4,30.16,NNE,22,13.0,14.0,97,0.00,,,0.00,WUHU216DAVISVP2,2013-03-08 18:47:00,
2013-03-08 13:52:00,33.3,32.5,30.16,NNE,19,11.0,14.0,97,0.00,,,0.00,WUHU216DAVISVP2,2013-03-08 18:52:00,
2013-03-08 13:57:00,33.4,32.6,30.17,NE,42,6.6,13.0,97,0.00,,,0.00,WUHU216DAVISVP2,2013-03-08 18:57:00,
2013-03-08 14:02:00,33.5,32.4,30.16,NNE,16,7.0,13.0,96,0.00,,,0.00,WUHU216DAVISVP2,2013-03-08 19:02:00,
2013-03-08 14:07:00,33.7,32.4,30.17,NE,50,7.8,13.0,95,0.00,,,0.00,WUHU216DAVISVP2,2013-03-08 19:07:00,
2013-03-08 14:12:00,33.9,32.6,30.17,ENE,68,9.0,14.0,95,0.00,,,0.00,WUHU216DAVISVP2,2013-03-08 19:12:00,
2013-03-08 14:17:00,34.1,32.6,30.17,NE,46,8.0,14.0,94,0.00,,,0.00,WUHU216DAVISVP2,2013-03-08 19:17:00,
2013-03-08 14:22:00,34.3,32.7,30.18,NE,49,9.0,15.0,94,0.00,,,0.00,WUHU216DAVISVP2,2013-03-08 19:22:00,
2013-03-08 14:27:00,34.5,32.4,30.18,NNE,28,7.3,15.0,92,0.00,,,0.00,WUHU216DAVISVP2,2013-03-08 19:27:00,
2013-03-08 14:32:00,34.8,32.4,30.17,North,10,5.5,15.0,91,0.00,,,0.00,WUHU216DAVISVP2,2013-03-08 19:32:00,
2013-03-08 14:37:00,34.9,31.9,30.16,NNE,30,10.0,14.0,89,0.00,,,0.00,WUHU216DAVISVP2,2013-03-08 19:37:00,
2013-03-08 14:42:00,35.2,31.7,30.16,NNE,27,9.0,14.0,87,0.00,,,0.00,WUHU216DAVISVP2,2013-03-08 19:42:00,
2013-03-08 14:47:00,35.4,31.6,30.16,NNE,20,8.5,13.0,86,0.00,,,0.00,WUHU216DAVISVP2,2013-03-08 19:47:00,
2013-03-08 14:52:00,35.7,31.9,30.16,NNE,24,9.0,13.0,86,0.00,,,0.00,WUHU216DAVISVP2,2013-03-08 19:52:00,
2013-03-08 14:57:00,35.9,32.1,30.16,NE,56,6.0,13.0,86,0.00,,,0.00,WUHU216DAVISVP2,2013-03-08 19:57:00,
2013-03-08 15:02:00,36.2,32.1,30.16,NNE,15,6.7,12.0,85,0.00,,,0.00,WUHU216DAVISVP2,2013-03-08 20:02:00,
2013-03-08 15:07:00,36.5,32.1,30.16,NNE,27,7.4,13.0,84,0.00,,,0.00,WUHU216DAVISVP2,2013-03-08 20:07:00,
2013-03-08 15:12:00,36.8,32.4,30.16,NNE,29,9.1,14.0,84,0.00,,,0.00,WUHU216DAVISVP2,2013-03-08 20:12:00,
2013-03-08 15:17:00,37.1,32.7,30.16,NE,39,8.5,14.0,84,0.00,,,0.00,WUHU216DAVISVP2,2013-03-08 20:17:00,
2013-03-08 15:22:00,37.4,33.0,30.16,NE,46,8.0,13.0,84,0.00,,,0.00,WUHU216DAVISVP2,2013-03-08 20:22:00,
2013-03-08 15:27:00,37.6,32.9,30.16,NNE,27,7.5,13.0,83,0.00,,,0.00,WUHU216DAVISVP2,2013-03-08 20:27:00,
2013-03-08 15:32:00,37.8,33.4,30.17,NNE,13,8.0,13.0,84,0.00,,,0.00,WUHU216DAVISVP2,2013-03-08 20:32:00,
2013-03-08 15:37:00,38.0,33.6,30.17,NNE,31,5.4,11.0,84,0.00,,,0.00,WUHU216DAVISVP2,2013-03-08 20:37:00,
2013-03-08 15:42:00,38.2,33.5,30.17,NNE,25,7.6,11.0,83,0.00,,,0.00,WUHU216DAVISVP2,2013-03-08 20:42:00,
2013-03-08 15:47:00,38.5,33.5,30.17,NNE,16,7.6,12.0,82,0.00,,,0.00,WUHU216DAVISVP2,2013-03-08 20:47:00,
2013-03-08 15:52:00,38.7,33.4,30.17,North,356,8.0,13.0,81,0.01,,,0.01,WUHU216DAVISVP2,2013-03-08 20:52:00,
2013-03-08 15:57:00,39.0,33.7,30.17,NNE,22,7.4,14.0,81,0.01,,,0.01,WUHU216DAVISVP2,2013-03-08 20:57:00,
2013-03-08 16:02:00,39.2,33.6,30.17,NNE,18,6.1,14.0,80,0.02,,,0.02,WUHU216DAVISVP2,2013-03-08 21:02:00,
2013-03-08 16:07:00,39.3,33.0,30.17,NE,41,9.0,14.0,78,0.02,,,0.02,WUHU216DAVISVP2,2013-03-08 21:07:00,
2013-03-08 16:12:00,39.5,33.2,30.17,North,4,6.7,14.0,78,0.03,,,0.03,WUHU216DAVISVP2,2013-03-08 21:12:00,
2013-03-08 16:17:00,39.6,33.0,30.18,NNE,16,12.0,13.0,77,0.03,,,0.03,WUHU216DAVISVP2,2013-03-08 21:17:00,
2013-03-08 16:22:00,39.7,33.4,30.18,North,350,6.0,13.0,78,0.04,,,0.04,WUHU216DAVISVP2,2013-03-08 21:22:00,
2013-03-08 16:27:00,39.9,33.3,30.18,North,357,5.0,12.0,77,0.04,,,0.04,WUHU216DAVISVP2,2013-03-08 21:27:00,
2013-03-08 16:32:00,40.4,33.4,30.18,North,356,6.0,12.0,76,0.04,,,0.04,WUHU216DAVISVP2,2013-03-08 21:32:00,
2013-03-08 16:37:00,40.7,33.4,30.19,NNE,14,4.8,12.0,75,0.05,,,0.05,WUHU216DAVISVP2,2013-03-08 21:37:00,
2013-03-08 16:42:00,41.0,33.4,30.19,North,11,5.2,12.0,74,0.05,,,0.05,WUHU216DAVISVP2,2013-03-08 21:42:00,
2013-03-08 16:47:00,41.2,33.3,30.19,NNE,18,4.5,12.0,73,0.05,,,0.05,WUHU216DAVISVP2,2013-03-08 21:47:00,
2013-03-08 16:52:00,41.4,33.1,30.20,NNE,25,4.9,10.0,72,0.05,,,0.06,WUHU216DAVISVP2,2013-03-08 21:52:00,
2013-03-08 16:57:00,41.6,32.6,30.20,NNE,22,5.0,10.0,70,0.05,,,0.06,WUHU216DAVISVP2,2013-03-08 21:57:00,
2013-03-08 17:02:00,41.8,32.4,30.20,NNE,21,5.2,9.0,69,0.04,,,0.06,WUHU216DAVISVP2,2013-03-08 22:02:00,
2013-03-08 17:07:00,41.7,32.3,30.20,North,360,6.0,9.0,69,0.04,,,0.06,WUHU216DAVISVP2,2013-03-08 22:07:00,
2013-03-08 17:12:00,41.5,31.4,30.20,NW,320,8.0,13.0,67,0.03,,,0.06,WUHU216DAVISVP2,2013-03-08 22:12:00,
2013-03-08 17:17:00,41.2,31.2,30.20,NNE,33,8.0,13.0,67,0.04,,,0.07,WUHU216DAVISVP2,2013-03-08 22:17:00,
2013-03-08 17:22:00,41.0,30.6,30.20,NNE,19,7.1,12.0,66,0.03,,,0.07,WUHU216DAVISVP2,2013-03-08 22:22:00,
2013-03-08 17:27:00,40.7,30.7,30.21,North,354,4.0,12.0,67,0.03,,,0.07,WUHU216DAVISVP2,2013-03-08 22:27:00,
2013-03-08 17:32:00,40.4,30.7,30.21,NE,41,5.5,11.0,68,0.03,,,0.07,WUHU216DAVISVP2,2013-03-08 22:32:00,
2013-03-08 17:37:00,40.0,30.7,30.21,NE,36,3.4,11.0,69,0.02,,,0.07,WUHU216DAVISVP2,2013-03-08 22:37:00,
2013-03-08 17:42:00,39.7,30.1,30.21,NNE,27,6.2,9.0,68,0.02,,,0.07,WUHU216DAVISVP2,2013-03-08 22:42:00,
2013-03-08 17:47:00,39.5,30.2,30.22,NNE,23,7.0,9.0,69,0.02,,,0.07,WUHU216DAVISVP2,2013-03-08 22:47:00,
2013-03-08 17:52:00,39.3,30.0,30.22,NE,45,4.3,9.0,69,0.01,,,0.07,WUHU216DAVISVP2,2013-03-08 22:52:00,
2013-03-08 17:57:00,39.2,29.9,30.23,NNE,24,5.3,9.0,69,0.01,,,0.07,WUHU216DAVISVP2,2013-03-08 22:57:00,
2013-03-08 18:02:00,39.1,29.8,30.23,NE,50,7.0,10.0,69,0.01,,,0.07,WUHU216DAVISVP2,2013-03-08 23:02:00,
2013-03-08 18:07:00,39.1,29.5,30.23,NNE,21,4.1,10.0,68,0.01,,,0.07,WUHU216DAVISVP2,2013-03-08 23:07:00,
2013-03-08 18:12:00,39.1,29.5,30.23,NNE,18,8.0,12.0,68,0.01,,,0.07,WUHU216DAVISVP2,2013-03-08 23:12:00,
2013-03-08 18:17:00,39.0,29.0,30.24,NNE,23,6.0,12.0,67,0.00,,,0.07,WUHU216DAVISVP2,2013-03-08 23:17:00,
2013-03-08 18:22:00,39.1,29.1,30.24,NNE,25,5.5,11.0,67,0.00,,,0.07,WUHU216DAVISVP2,2013-03-08 23:22:00,
2013-03-08 18:27:00,38.9,29.0,30.24,NNE,22,5.1,11.0,67,0.00,,,0.07,WUHU216DAVISVP2,2013-03-08 23:27:00,
2013-03-08 18:32:00,38.8,28.9,30.24,NNE,24,6.0,10.0,67,0.00,,,0.07,WUHU216DAVISVP2,2013-03-08 23:32:00,
2013-03-08 18:37:00,38.8,28.5,30.24,NNE,15,6.1,13.0,66,0.00,,,0.07,WUHU216DAVISVP2,2013-03-08 23:37:00,
2013-03-08 18:42:00,38.7,28.4,30.25,NNE,31,9.6,14.0,66,0.00,,,0.07,WUHU216DAVISVP2,2013-03-08 23:42:00,
2013-03-08 18:47:00,38.6,28.3,30.25,NNE,18,8.0,15.0,66,0.00,,,0.07,WUHU216DAVISVP2,2013-03-08 23:47:00,
2013-03-08 18:52:00,38.5,28.2,30.25,NNE,19,8.8,15.0,66,0.00,,,0.07,WUHU216DAVISVP2,2013-03-08 23:52:00,
2013-03-08 18:57:00,38.3,28.4,30.25,NNE,27,3.2,14.0,67,0.00,,,0.07,WUHU216DAVISVP2,2013-03-08 23:57:00,
2013-03-08 19:02:00,38.2,28.2,30.26,North,10,4.5,13.0,67,0.00,,,0.07,WUHU216DAVISVP2,2013-03-09 00:02:00,
2013-03-08 19:07:00,38.1,28.1,30.26,NNE,13,4.4,13.0,67,0.00,,,0.07,WUHU216DAVISVP2,2013-03-09 00:07:00,
2013-03-08 19:12:00,38.0,28.1,30.26,NNE,23,5.4,10.0,67,0.00,,,0.07,WUHU216DAVISVP2,2013-03-09 00:12:00,
2013-03-08 19:17:00,37.8,27.9,30.26,North,358,5.1,10.0,67,0.00,,,0.07,WUHU216DAVISVP2,2013-03-09 00:17:00,
2013-03-08 19:22:00,37.7,27.8,30.27,NNE,20,10.0,13.0,67,0.00,,,0.07,WUHU216DAVISVP2,2013-03-09 00:22:00,
2013-03-08 19:27:00,37.7,27.4,30.27,NNW,340,11.0,15.0,66,0.00,,,0.07,WUHU216DAVISVP2,2013-03-09 00:27:00,
2013-03-08 19:32:00,37.7,27.4,30.27,NNE,15,9.7,15.0,66,0.00,,,0.07,WUHU216DAVISVP2,2013-03-09 00:32:00,
2013-03-08 19:37:00,37.5,27.5,30.27,NE,50,11.0,15.0,67,0.00,,,0.07,WUHU216DAVISVP2,2013-03-09 00:37:00,
2013-03-08 19:42:00,37.4,27.4,30.28,NNE,17,6.3,15.0,67,0.00,,,0.07,WUHU216DAVISVP2,2013-03-09 00:42:00,
2013-03-08 19:47:00,37.3,27.3,30.28,North,11,9.0,15.0,67,0.00,,,0.07,WUHU216DAVISVP2,2013-03-09 00:47:00,
2013-03-08 19:52:00,37.2,27.2,30.28,NNE,19,8.0,14.0,67,0.00,,,0.07,WUHU216DAVISVP2,2013-03-09 00:52:00,
2013-03-08 19:57:00,37.1,27.2,30.28,NNE,17,7.8,13.0,67,0.00,,,0.07,WUHU216DAVISVP2,2013-03-09 00:57:00,
2013-03-08 20:02:00,37.0,27.1,30.28,NNE,18,8.0,13.0,67,0.00,,,0.07,WUHU216DAVISVP2,2013-03-09 01:02:00,
2013-03-08 20:07:00,36.9,27.0,30.28,North,351,8.0,14.0,67,0.00,,,0.07,WUHU216DAVISVP2,2013-03-09 01:07:00,
2013-03-08 20:12:00,36.8,27.3,30.28,NNE,32,7.0,14.0,68,0.00,,,0.07,WUHU216DAVISVP2,2013-03-09 01:12:00,
2013-03-08 20:17:00,36.7,27.2,30.29,North,4,5.7,13.0,68,0.00,,,0.07,WUHU216DAVISVP2,2013-03-09 01:17:00,
2013-03-08 20:22:00,36.6,27.1,30.29,NNE,29,9.0,13.0,68,0.00,,,0.07,WUHU216DAVISVP2,2013-03-09 01:22:00,
2013-03-08 20:27:00,36.6,27.1,30.29,NNE,21,6.9,14.0,68,0.00,,,0.07,WUHU216DAVISVP2,2013-03-09 01:27:00,
2013-03-08 20:32:00,36.5,27.0,30.29,NNE,20,9.0,14.0,68,0.00,,,0.07,WUHU216DAVISVP2,2013-03-09 01:32:00,
2013-03-08 20:37:00,36.3,26.8,30.29,NNE,30,6.9,13.0,68,0.00,,,0.07,WUHU216DAVISVP2,2013-03-09 01:37:00,
2013-03-08 20:42:00,36.3,26.8,30.29,NNE,19,7.4,14.0,68,0.00,,,0.07,WUHU216DAVISVP2,2013-03-09 01:42:00,
2013-03-08 20:47:00,36.2,26.7,30.29,NNE,18,8.8,14.0,68,0.00,,,0.07,WUHU216DAVISVP2,2013-03-09 01:47:00,
2013-03-08 20:52:00,36.0,26.9,30.30,NNE,18,6.0,13.0,69,0.00,,,0.07,WUHU216DAVISVP2,2013-03-09 01:52:00,
2013-03-08 20:57:00,35.8,27.0,30.30,North,11,9.0,13.0,70,0.00,,,0.07,WUHU216DAVISVP2,2013-03-09 01:57:00,
2013-03-08 21:02:00,35.8,26.7,30.30,North,11,7.2,12.0,69,0.00,,,0.07,WUHU216DAVISVP2,2013-03-09 02:02:00,
2013-03-08 21:07:00,35.7,26.6,30.30,NNE,24,10.0,11.0,69,0.00,,,0.07,WUHU216DAVISVP2,2013-03-09 02:07:00,
2013-03-08 21:12:00,35.8,26.7,30.30,NNE,21,8.6,14.0,69,0.00,,,0.07,WUHU216DAVISVP2,2013-03-09 02:12:00,
2013-03-08 21:17:00,35.7,26.6,30.30,NNE,32,7.6,14.0,69,0.00,,,0.07,WUHU216DAVISVP2,2013-03-09 02:17:00,
2013-03-08 21:22:00,35.6,26.8,30.30,NNE,13,6.1,13.0,70,0.00,,,0.07,WUHU216DAVISVP2,2013-03-09 02:22:00,
2013-03-08 21:27:00,35.5,26.4,30.30,NNE,17,7.1,13.0,69,0.00,,,0.07,WUHU216DAVISVP2,2013-03-09 02:27:00,
2013-03-08 21:32:00,35.4,26.7,30.30,NNE,14,5.8,13.0,70,0.00,,,0.07,WUHU216DAVISVP2,2013-03-09 02:32:00,
2013-03-08 21:37:00,35.3,26.6,30.31,NNE,24,9.0,12.0,70,0.00,,,0.07,WUHU216DAVISVP2,2013-03-09 02:37:00,
2013-03-08 21:42:00,35.2,26.5,30.30,North,356,9.0,12.0,70,0.00,,,0.07,WUHU216DAVISVP2,2013-03-09 02:42:00,
2013-03-08 21:47:00,35.2,26.4,30.30,NNE,18,8.0,12.0,70,0.00,,,0.07,WUHU216DAVISVP2,2013-03-09 02:47:00,
2013-03-08 21:52:00,35.1,26.3,30.30,NNE,22,5.1,12.0,70,0.00,,,0.07,WUHU216DAVISVP2,2013-03-09 02:52:00,
2013-03-08 21:57:00,35.0,26.3,30.30,NNE,15,6.6,12.0,70,0.00,,,0.07,WUHU216DAVISVP2,2013-03-09 02:57:00,
2013-03-08 22:02:00,34.8,26.4,30.30,NNE,19,8.0,12.0,71,0.00,,,0.07,WUHU216DAVISVP2,2013-03-09 03:02:00,
2013-03-08 22:07:00,34.7,26.3,30.30,NNE,12,4.4,10.0,71,0.00,,,0.07,WUHU216DAVISVP2,2013-03-09 03:07:00,
2013-03-08 22:12:00,34.6,26.2,30.31,North,1,4.8,10.0,71,0.00,,,0.07,WUHU216DAVISVP2,2013-03-09 03:12:00,
2013-03-08 22:17:00,34.4,26.4,30.31,NNW,332,2.6,10.0,72,0.00,,,0.07,WUHU216DAVISVP2,2013-03-09 03:17:00,
2013-03-08 22:22:00,34.1,26.4,30.31,NW,316,3.0,9.0,73,0.00,,,0.07,WUHU216DAVISVP2,2013-03-09 03:22:00,
2013-03-08 22:27:00,33.8,26.1,30.31,NNW,345,3.0,9.0,73,0.00,,,0.07,WUHU216DAVISVP2,2013-03-09 03:27:00,
2013-03-08 22:32:00,33.6,26.2,30.31,North,356,2.0,5.0,74,0.00,,,0.07,WUHU216DAVISVP2,2013-03-09 03:32:00,
2013-03-08 22:37:00,33.3,26.0,30.30,NW,323,5.0,5.0,74,0.00,,,0.07,WUHU216DAVISVP2,2013-03-09 03:37:00,
2013-03-08 22:42:00,33.1,26.1,30.31,NW,311,2.0,5.0,75,0.00,,,0.07,WUHU216DAVISVP2,2013-03-09 03:42:00,
2013-03-08 22:47:00,33.1,26.1,30.31,NNW,336,1.8,5.0,75,0.00,,,0.07,WUHU216DAVISVP2,2013-03-09 03:47:00,
2013-03-08 22:52:00,32.9,25.8,30.30,North,355,2.6,5.0,75,0.00,,,0.07,WUHU216DAVISVP2,2013-03-09 03:52:00,
2013-03-08 22:57:00,32.9,25.8,30.30,NNE,18,3.3,7.0,75,0.00,,,0.07,WUHU216DAVISVP2,2013-03-09 03:57:00,
2013-03-08 23:02:00,32.8,25.7,30.30,NNW,347,4.0,7.0,75,0.00,,,0.07,WUHU216DAVISVP2,2013-03-09 04:02:00,
2013-03-08 23:07:00,32.8,25.7,30.30,NNW,338,2.1,7.0,75,0.00,,,0.07,WUHU216DAVISVP2,2013-03-09 04:07:00,
2013-03-08 23:12:00,32.7,25.6,30.30,NNW,327,2.6,7.0,75,0.00,,,0.07,WUHU216DAVISVP2,2013-03-09 04:12:00,
2013-03-08 23:17:00,32.4,25.7,30.30,NW,316,2.0,6.0,76,0.00,,,0.07,WUHU216DAVISVP2,2013-03-09 04:17:00,
2013-03-08 23:22:00,32.2,25.8,30.30,NNW,334,2.1,5.0,77,0.00,,,0.07,WUHU216DAVISVP2,2013-03-09 04:22:00,
2013-03-08 23:27:00,32.0,25.9,30.30,NNE,13,2.0,7.0,78,0.00,,,0.07,WUHU216DAVISVP2,2013-03-09 04:27:00,
2013-03-08 23:32:00,31.7,25.9,30.30,NNW,343,4.0,7.0,79,0.00,,,0.07,WUHU216DAVISVP2,2013-03-09 04:32:00,
2013-03-08 23:37:00,31.6,25.8,30.30,NNE,15,4.0,7.0,79,0.00,,,0.07,WUHU216DAVISVP2,2013-03-09 04:37:00,
2013-03-08 23:42:00,31.4,25.7,30.30,NNW,338,2.1,7.0,79,0.00,,,0.07,WUHU216DAVISVP2,2013-03-09 04:42:00,
2013-03-08 23:47:00,31.3,25.6,30.30,NW,320,1.2,7.0,79,0.00,,,0.07,WUHU216DAVISVP2,2013-03-09 04:47:00,
2013-03-08 23:52:00,31.0,25.6,30.30,North,355,1.1,5.0,80,0.00,,,0.07,WUHU216DAVISVP2,2013-03-09 04:52:00,
2013-03-08 23:57:00,30.8,25.4,30.30,North,353,1.0,5.0,80,0.00,,,0.07,WUHU216DAVISVP2,2013-03-09 04:57:00,